Dewpoint
42 42 41 42 40 40 39 37 35 35 34 33 34 34 34 35 35 36 36 36 37 38
42 41 39 39 39 38 37 34 35 34 31 32 33 34 37 36 36 35 36 36 35 34
41 39 39 38 37 36 35 34 33 31 31 32 34 35 34 35 34 34 34 34 32 33
39 40 40 38 37 35 34 33 31 31 31 32 34 33 33 33 33 32 32 32 31 30
40 41 37 36 35 35 33 33 31 32 32 33 33 32 31 33 33 32 31 31 29 27
42 39 36 35 35 33 33 31 31 32 33 33 33 30 31 32 32 30 29 26 26 24
39 37 34 33 33 33 32 31 32 33 34 35 32 31 32 30 28 27 26 26 26 25
38 35 34 34 34 34 33 32 32 33 34 33 31 29 29 27 26 25 25 25 25 22
35 33 35 33 33 33 33 32 33 32 33 32 30 31 30 27 24 24 24 23 24 23
34 33 32 31 30 29 30 31 32 31 32 33 31 31 30 28 23 23 23 24 23 22
31 30 30 29 29 30 32 32 31 31 31 33 32 32 31 27 22 23 24 24 23 22
31 30 30 29 32 32 31 31 31 30 30 32 31 32 30 26 24 24 24 25 24 24
31 30 31 31 31 31 31 30 30 29 31 32 30 31 30 27 26 25 25 24 24 23
32 31 30 30 29 28 29 29 30 30 30 30 30 29 31 29 26 25 25 25 24 24
Lifted_Index
2 2 3 4 4 5 5 6 7 8 9 11 12 12 12 12 11 11 10 10 10 10
2 2 3 4 5 5 6 7 8 9 10 11 12 12 12 12 11 11 11 10 10 10
2 2 3 5 6 7 8 9 9 10 11 12 12 12 12 12 12 12 12 11 11 11
2 3 4 6 7 8 9 10 10 11 12 12 12 12 12 12 12 12 12 12 11 11
3 4 5 7 8 9 10 10 11 12 12 12 12 12 12 12 12 12 12 12 12 12
4 5 7 8 9 10 10 10 11 12 12 12 12 11 12 12 12 12 12 12 12 13
6 7 8 9 9 10 10 10 11 12 12 12 11 11 11 11 12 12 12 12 12 13
8 8 9 9 9 10 10 11 12 12 12 11 11 11 11 11 11 11 11 11 12 12
8 9 9 9 10 10 11 12 12 12 11 11 11 10 10 11 11 10 10 10 11 11
9 9 10 10 11 11 12 12 12 11 11 10 10 10 10 10 10 9 9 9 9 10
10 10 11 11 11 12 12 12 11 11 10 10 10 10 10 9 9 8 8 8 9 9
11 11 12 12 12 12 12 11 11 10 10 10 9 9 9 8 8 8 8 8 8 9
11 11 12 12 12 11 11 11 10 10 9 9 8 8 8 8 7 8 8 8 8 8
11 11 12 12 11 11 11 11 10 10 9 8 7 7 7 7 7 8 8 8 8 8